STARLINK-1554 (46055 NORAD) Tracking and Keplerian Element Data

This shows tracking and keplerian element data for the satellite.

Feedback or suggestion? Click here.




ElementValue
Catalog46055
NameSTARLINK-1554
Epoch Orbit1846
Epoch Day336.48894902
Epoch Year2020
RAAN114.673
Inclination53.0161
Eccentricity0.0002387
Argument of Perigee128.7288
Mean Anonmoly231.3914
Mean Motion15.06358026
Decay Rate5.2E-07
L11 46055U 20055AE 20336.48894902 .00000052 00000-0 22412-4 0 9992
L22 46055 53.0161 114.6730 0002387 128.7288 231.3914 15.06358026 18464

Live tracking and technical data element details for STARLINK-1554 (NORAD 46055). STARLINK-1554 can be tracked NOW for your location showing map with azimuth and elevation plus other details from your city location.

Track the satellite on the map from your city or location and see movement details for azimuth, elevation, latitude, longitude, range, height, and movement on the map or in text.







IsCatalogInMostPopularTable: catalog: 46055, numindb: 38
Update: records affected: 1



GetName: 46055 STARLINK-1554

Hit Count: updated at: Wed, 02 Dec 2020 19:19:21 GMT